Flag for U.S.A. Weather past 2 weeks in Pittsburgh, Pennsylvania, U.S.A.

Now
68 °F

Clear.


Feels Like: 68 °F
Forecast: 60 / 83 °F
Wind: 3 mph from South

Location: Allegheny County Airport

Current Time: Aug 1, 2014 at 12:31:05 AM

Latest Report: Jul 31, 2014 at 11:53 PM


Visibility: 6 mi

Pressure: 30.12 "Hg

Humidity: 76%

Dew point: 60 °F

Location of PittsburghLocation

Historic Weather in Pittsburgh — Graph

°F

Pittsburgh temperature yesterday

Maximum temperature yesterday: 78 °F (at 3:53 PM)
Minimum temperature yesterday: 57 °F (at 3:53 AM)
Average temperature yesterday: 67 °F

Past Weeks' High & Low Weather Summary

 TemperatureHumidityPressure
High84 °F (Jul 21, 3:53 PM)94% (Jul 19, 2:02 AM)30.25 "Hg (Jul 19, 2:02 AM)
Low52 °F (Jul 29, 3:53 AM)29% (Jul 25, 3:53 PM)29.61 "Hg (Jul 28, 1:53 AM)
Average68 °F72%30.03 "Hg
* Reported Jul 16 10:53 PM — Jul 31 10:53 PM, Pittsburgh, Weather by CustomWeather, © 2014

Note: Actual official high and low records may vary slightly from our data, if they occured in-between our weather recording intervals... More about our weather records

Advertising

Pittsburgh weather history for previous 24 hours

 ConditionsComfort  
Time TempWeatherWind HumidityBarometerVisibility
10:53 PM
Jul 31
71 °FClear.5 mph63%30.12 "Hg10 mi
9:53 PM73 °FPassing clouds.No wind59%30.12 "Hg10 mi
8:53 PM72 °FSunny.No wind61%30.11 "Hg9 mi
7:53 PM73 °FScattered clouds.3 mph62%30.10 "Hg9 mi
6:53 PM75 °FMore clouds than sun.7 mph58%30.10 "Hg9 mi
5:53 PM77 °FScattered clouds.10 mph50%30.09 "Hg10 mi
4:53 PM78 °FSunny.13 mph45%30.08 "Hg10 mi
3:53 PM78 °FScattered clouds.12 mph50%30.09 "Hg9 mi
2:53 PM77 °FBroken clouds.12 mph54%30.09 "Hg9 mi
1:53 PM74 °FScattered clouds.14 mph57%30.10 "Hg9 mi
12:53 PM72 °FPartly sunny.8 mph64%30.10 "Hg10 mi
11:53 AM72 °FBroken clouds.7 mph66%30.10 "Hg10 mi
10:53 AM69 °FBroken clouds.9 mph70%30.11 "Hg10 mi
9:53 AM65 °FBroken clouds.6 mph78%30.11 "Hg9 mi
8:53 AM61 °FFog.7 mph87%30.10 "Hg5 mi
7:53 AM59 °FFog.7 mph90%30.09 "Hg4 mi
6:53 AM58 °FFog.8 mph90%30.07 "Hg3 mi
5:53 AM57 °FFog.8 mph93%30.06 "Hg4 mi
4:53 AM57 °FFog.8 mph93%30.06 "Hg4 mi
3:53 AM57 °FFog.7 mph93%30.05 "Hg4 mi
2:53 AM58 °FFog.5 mph93%30.06 "Hg6 mi
1:53 AM59 °FPassing clouds.8 mph90%30.05 "Hg7 mi
12:53 AM58 °FPartly cloudy.6 mph90%30.06 "Hg8 mi
Weather by CustomWeather, © 2014

See weather overviewHow to use our weather pages